Time,TemperatureF,DewpointF,PressureIn,WindDirection,WindDirectionDegrees,WindSpeedMPH,WindSpeedGustMPH,Humidity,HourlyPrecipIn,Conditions,Clouds,dailyrainin,SolarRadiationWatts/m^2,SoftwareType,DateUTC
2013-04-10 00:03:00,56.0,49.0,-100.00,SSW,212,0.0,0.0,77,0.00,,,0.00,0.000000,,2013-04-10 04:03:00,
2013-04-10 00:13:00,56.0,49.0,-100.00,SSW,212,0.0,0.0,77,0.00,,,0.00,0.000000,,2013-04-10 04:13:00,
2013-04-10 00:33:00,54.0,48.0,-100.00,SSE,149,0.0,0.0,81,0.00,,,0.00,0.000000,,2013-04-10 04:33:00,
2013-04-10 00:43:00,54.0,48.0,-100.00,SSE,149,0.0,0.0,81,0.00,,,0.00,0.000000,,2013-04-10 04:43:00,
2013-04-10 00:53:00,54.0,48.0,-100.00,SSE,149,0.0,0.0,81,0.00,,,0.00,0.000000,,2013-04-10 04:53:00,
2013-04-10 01:03:00,54.0,48.0,-100.00,SSE,149,0.0,0.0,81,0.00,,,0.00,0.000000,,2013-04-10 05:03:00,
2013-04-10 01:13:00,54.0,48.0,-100.00,SSE,149,0.0,0.0,81,0.00,,,0.00,0.000000,,2013-04-10 05:13:00,
2013-04-10 01:33:00,53.0,48.0,-100.00,ESE,118,0.0,0.0,84,0.00,,,0.00,0.000000,,2013-04-10 05:33:00,
2013-04-10 01:43:00,53.0,48.0,-100.00,ESE,118,0.0,0.0,84,0.00,,,0.00,0.000000,,2013-04-10 05:43:00,
2013-04-10 01:53:00,53.0,48.0,-100.00,ESE,118,0.0,0.0,84,0.00,,,0.00,0.000000,,2013-04-10 05:53:00,
2013-04-10 02:03:00,53.0,48.0,-100.00,ESE,118,0.0,0.0,84,0.00,,,0.00,0.000000,,2013-04-10 06:03:00,
2013-04-10 02:12:00,53.0,48.0,-100.00,ESE,118,0.0,0.0,84,0.00,,,0.00,0.000000,,2013-04-10 06:12:00,
2013-04-10 02:43:00,52.0,48.0,-100.00,West,260,0.0,0.0,87,0.00,,,0.00,0.000000,,2013-04-10 06:43:00,
2013-04-10 02:52:00,52.0,48.0,-100.00,West,260,0.0,0.0,87,0.00,,,0.00,0.000000,,2013-04-10 06:52:00,
2013-04-10 03:02:00,52.0,48.0,-100.00,West,260,0.0,0.0,87,0.00,,,0.00,0.000000,,2013-04-10 07:02:00,
2013-04-10 03:12:00,52.0,48.0,-100.00,West,260,0.0,0.0,87,0.00,,,0.00,0.000000,,2013-04-10 07:12:00,
2013-04-10 03:43:00,50.0,48.0,-100.00,South,182,0.0,0.0,92,0.00,,,0.00,0.000000,,2013-04-10 07:43:00,
2013-04-10 03:52:00,50.0,48.0,-100.00,South,182,0.0,0.0,92,0.00,,,0.00,0.000000,,2013-04-10 07:52:00,
2013-04-10 04:02:00,50.0,48.0,-100.00,South,182,0.0,0.0,92,0.00,,,0.00,0.000000,,2013-04-10 08:02:00,
2013-04-10 04:12:00,50.0,48.0,-100.00,South,182,0.0,0.0,92,0.00,,,0.00,0.000000,,2013-04-10 08:12:00,
2013-04-10 04:43:00,49.0,48.0,-100.00,East,90,0.0,0.0,95,0.00,,,0.00,0.000000,,2013-04-10 08:43:00,
2013-04-10 04:52:00,49.0,48.0,-100.00,East,90,0.0,0.0,95,0.00,,,0.00,0.000000,,2013-04-10 08:52:00,
2013-04-10 05:02:00,49.0,48.0,-100.00,East,90,0.0,0.0,95,0.00,,,0.00,0.000000,,2013-04-10 09:02:00,
2013-04-10 05:12:00,49.0,48.0,-100.00,East,90,0.0,0.0,95,0.00,,,0.00,0.000000,,2013-04-10 09:12:00,
2013-04-10 05:43:00,48.0,47.0,-100.00,SSE,148,0.0,0.0,97,0.00,,,0.00,0.000000,,2013-04-10 09:43:00,
2013-04-10 05:53:00,48.0,47.0,-100.00,SSE,148,0.0,0.0,97,0.00,,,0.00,0.000000,,2013-04-10 09:53:00,
2013-04-10 06:03:00,48.0,47.0,-100.00,SSE,148,0.0,0.0,97,0.00,,,0.00,0.000000,,2013-04-10 10:03:00,
2013-04-10 06:13:00,48.0,47.0,-100.00,SSE,148,0.0,0.0,97,0.00,,,0.00,0.000000,,2013-04-10 10:13:00,
2013-04-10 06:33:00,47.0,47.0,-100.00,SSE,161,0.0,0.0,99,0.00,,,0.00,0.000000,,2013-04-10 10:33:00,
2013-04-10 06:43:00,47.0,47.0,-100.00,SSE,161,0.0,0.0,99,0.00,,,0.00,0.000000,,2013-04-10 10:43:00,
2013-04-10 06:53:00,47.0,47.0,-100.00,SSE,161,0.0,0.0,99,0.00,,,0.00,0.000000,,2013-04-10 10:53:00,
2013-04-10 07:03:00,47.0,47.0,-100.00,SSE,161,0.0,0.0,99,0.00,,,0.00,0.000000,,2013-04-10 11:03:00,
2013-04-10 07:12:00,47.0,47.0,-100.00,SSE,161,0.0,0.0,99,0.00,,,0.00,0.000000,,2013-04-10 11:12:00,
2013-04-10 09:43:00,53.0,52.0,-100.00,SE,125,0.0,0.0,97,-99.99,,,0.00,37.000000,,2013-04-10 13:43:00,
2013-04-10 09:53:00,53.0,52.0,-100.00,SE,125,0.0,0.0,97,-99.99,,,0.00,37.000000,,2013-04-10 13:53:00,
2013-04-10 10:02:00,53.0,52.0,-100.00,SE,125,0.0,0.0,97,-99.99,,,0.00,37.000000,,2013-04-10 14:02:00,
2013-04-10 10:12:00,53.0,52.0,-100.00,SE,125,0.0,0.0,97,-99.99,,,0.00,37.000000,,2013-04-10 14:12:00,
2013-04-10 10:33:00,73.0,60.0,-100.00,South,190,3.0,11.0,64,0.00,,,0.00,241.000000,,2013-04-10 14:33:00,
2013-04-10 10:42:00,73.0,60.0,-100.00,South,190,3.0,11.0,64,0.00,,,0.00,241.000000,,2013-04-10 14:42:00,
2013-04-10 10:52:00,73.0,60.0,-100.00,South,190,3.0,11.0,64,0.00,,,0.00,241.000000,,2013-04-10 14:52:00,
2013-04-10 11:03:00,73.0,60.0,-100.00,South,190,3.0,11.0,64,0.00,,,0.00,241.000000,,2013-04-10 15:03:00,
2013-04-10 11:12:00,73.0,60.0,-100.00,South,190,3.0,11.0,64,0.00,,,0.00,241.000000,,2013-04-10 15:12:00,
2013-04-10 12:33:00,80.0,52.0,-100.00,West,281,7.0,15.0,38,-99.99,,,0.00,704.000000,,2013-04-10 16:33:00,
2013-04-10 12:43:00,80.0,52.0,-100.00,West,281,7.0,15.0,38,-99.99,,,0.00,704.000000,,2013-04-10 16:43:00,
2013-04-10 12:53:00,80.0,52.0,-100.00,West,281,7.0,15.0,38,-99.99,,,0.00,704.000000,,2013-04-10 16:53:00,
2013-04-10 13:03:00,80.0,52.0,-100.00,West,281,7.0,15.0,38,-99.99,,,0.00,704.000000,,2013-04-10 17:03:00,
2013-04-10 13:13:00,80.0,52.0,-100.00,West,281,7.0,15.0,38,-99.99,,,0.00,704.000000,,2013-04-10 17:13:00,
2013-04-10 13:34:00,83.0,53.0,-100.00,West,271,8.0,15.0,36,0.00,,,0.00,627.000000,,2013-04-10 17:34:00,
2013-04-10 13:43:00,83.0,53.0,-100.00,West,271,8.0,15.0,36,0.00,,,0.00,627.000000,,2013-04-10 17:43:00,
2013-04-10 13:53:00,83.0,53.0,-100.00,West,271,8.0,15.0,36,0.00,,,0.00,627.000000,,2013-04-10 17:53:00,
2013-04-10 14:03:00,83.0,53.0,-100.00,West,271,8.0,15.0,36,0.00,,,0.00,627.000000,,2013-04-10 18:03:00,
2013-04-10 14:12:00,83.0,53.0,-100.00,West,271,8.0,15.0,36,0.00,,,0.00,627.000000,,2013-04-10 18:12:00,
2013-04-10 14:43:00,85.0,52.0,-100.00,WNW,297,5.0,16.0,32,0.00,,,0.00,786.000000,,2013-04-10 18:43:00,
2013-04-10 14:53:00,85.0,52.0,-100.00,WNW,297,5.0,16.0,32,0.00,,,0.00,786.000000,,2013-04-10 18:53:00,
2013-04-10 15:03:00,85.0,52.0,-100.00,WNW,297,5.0,16.0,32,0.00,,,0.00,786.000000,,2013-04-10 19:03:00,
2013-04-10 15:13:00,85.0,52.0,-100.00,WNW,297,5.0,16.0,32,0.00,,,0.00,786.000000,,2013-04-10 19:13:00,
2013-04-10 15:42:00,85.0,49.0,-100.00,WNW,296,7.0,15.0,29,0.00,,,0.00,752.000000,,2013-04-10 19:42:00,
2013-04-10 15:53:00,85.0,49.0,-100.00,WNW,296,7.0,15.0,29,0.00,,,0.00,752.000000,,2013-04-10 19:53:00,
2013-04-10 16:03:00,85.0,49.0,-100.00,WNW,296,7.0,15.0,29,0.00,,,0.00,752.000000,,2013-04-10 20:03:00,
2013-04-10 16:12:00,85.0,49.0,-100.00,WNW,296,7.0,15.0,29,0.00,,,0.00,752.000000,,2013-04-10 20:12:00,
2013-04-10 16:43:00,85.0,50.0,-100.00,WNW,296,9.0,17.0,30,0.00,,,0.00,655.000000,,2013-04-10 20:43:00,
2013-04-10 16:53:00,85.0,50.0,-100.00,WNW,296,9.0,17.0,30,0.00,,,0.00,655.000000,,2013-04-10 20:53:00,
2013-04-10 17:03:00,85.0,50.0,-100.00,WNW,296,9.0,17.0,30,0.00,,,0.00,655.000000,,2013-04-10 21:03:00,
2013-04-10 17:13:00,85.0,50.0,-100.00,WNW,296,9.0,17.0,30,0.00,,,0.00,655.000000,,2013-04-10 21:13:00,
2013-04-10 17:43:00,86.0,48.0,-100.00,West,270,7.0,17.0,27,0.00,,,0.00,509.000000,,2013-04-10 21:43:00,
2013-04-10 17:53:00,86.0,48.0,-100.00,West,270,7.0,17.0,27,0.00,,,0.00,509.000000,,2013-04-10 21:53:00,
2013-04-10 18:03:00,86.0,48.0,-100.00,West,270,7.0,17.0,27,0.00,,,0.00,509.000000,,2013-04-10 22:03:00,
2013-04-10 18:13:00,86.0,48.0,-100.00,West,270,7.0,17.0,27,0.00,,,0.00,509.000000,,2013-04-10 22:13:00,
2013-04-10 18:43:00,85.0,44.0,-100.00,WNW,301,5.0,17.0,24,0.00,,,0.00,356.000000,,2013-04-10 22:43:00,
2013-04-10 18:53:00,85.0,44.0,-100.00,WNW,301,5.0,17.0,24,0.00,,,0.00,356.000000,,2013-04-10 22:53:00,
2013-04-10 19:03:00,85.0,44.0,-100.00,WNW,301,5.0,17.0,24,0.00,,,0.00,356.000000,,2013-04-10 23:03:00,
2013-04-10 19:12:00,85.0,44.0,-100.00,WNW,301,5.0,17.0,24,0.00,,,0.00,356.000000,,2013-04-10 23:12:00,
2013-04-10 19:33:00,79.0,40.0,-100.00,SW,227,3.0,13.0,25,0.00,,,0.00,147.000000,,2013-04-10 23:33:00,
2013-04-10 19:43:00,79.0,40.0,-100.00,SW,227,3.0,13.0,25,0.00,,,0.00,147.000000,,2013-04-10 23:43:00,
2013-04-10 19:53:00,79.0,40.0,-100.00,SW,227,3.0,13.0,25,0.00,,,0.00,147.000000,,2013-04-10 23:53:00,
2013-04-10 20:02:00,79.0,40.0,-100.00,SW,227,3.0,13.0,25,0.00,,,0.00,147.000000,,2013-04-11 00:02:00,
2013-04-10 20:13:00,79.0,40.0,-100.00,SW,227,3.0,13.0,25,0.00,,,0.00,147.000000,,2013-04-11 00:13:00,
2013-04-10 20:43:00,69.0,48.0,-100.00,SW,230,2.0,6.0,47,0.00,,,0.00,9.000000,,2013-04-11 00:43:00,
2013-04-10 20:53:00,69.0,48.0,-100.00,SW,230,2.0,6.0,47,0.00,,,0.00,9.000000,,2013-04-11 00:53:00,
2013-04-10 21:02:00,69.0,48.0,-100.00,SW,230,2.0,6.0,47,0.00,,,0.00,9.000000,,2013-04-11 01:02:00,
2013-04-10 21:12:00,69.0,48.0,-100.00,SW,230,2.0,6.0,47,0.00,,,0.00,9.000000,,2013-04-11 01:12:00,
2013-04-10 21:42:00,63.0,51.0,-100.00,SW,235,2.0,5.0,64,0.00,,,0.00,0.000000,,2013-04-11 01:42:00,
2013-04-10 21:52:00,63.0,51.0,-100.00,SW,235,2.0,5.0,64,0.00,,,0.00,0.000000,,2013-04-11 01:52:00,
2013-04-10 22:03:00,63.0,51.0,-100.00,SW,235,2.0,5.0,64,0.00,,,0.00,0.000000,,2013-04-11 02:03:00,
2013-04-10 22:12:00,63.0,51.0,-100.00,SW,235,2.0,5.0,64,0.00,,,0.00,0.000000,,2013-04-11 02:12:00,
2013-04-10 22:53:00,61.0,51.0,-100.00,WSW,241,0.0,4.0,70,0.00,,,0.00,0.000000,,2013-04-11 02:53:00,
2013-04-10 23:02:00,61.0,51.0,-100.00,WSW,241,0.0,4.0,70,0.00,,,0.00,0.000000,,2013-04-11 03:02:00,
2013-04-10 23:12:00,61.0,51.0,-100.00,WSW,241,0.0,4.0,70,0.00,,,0.00,0.000000,,2013-04-11 03:12:00,
2013-04-10 23:43:00,59.0,51.0,-100.00,WSW,243,0.0,3.0,74,0.00,,,0.00,0.000000,,2013-04-11 03:43:00,
2013-04-10 23:54:00,59.0,51.0,-100.00,WSW,243,0.0,3.0,74,0.00,,,0.00,0.000000,,2013-04-11 03:54:00,